[[{"header":{"parameterUnit":"m.s-1","parameterCategory":1,"la1":30.2992,"la2":30.254,"lo1":-89.0895,"lo2":-89.0443,"dy":0.0025,"dx":0.0025,"nx":19,"ny":19,"refTime":"2026-04-29T03:00:00:Z","depth":0,"parameterNumber":2,"parameterNumberName":"U-component_of_WINDS"},"data":[0,0,0,0.7592,0.7597,0.7822,0.7823,0.816,0.8163,0,0,0,0,0,0,0,0,0,0,0,0.7544,0.7547,0.7592,0.7598,0.7822,0.7823,0.8159,0.8163,0,0,0,0,0,0,0,0,0,0,0,0.7543,0.7546,0.7549,0.7599,0.7822,0.7823,0.8158,0.7974,0,0,0,0,0,0,0,0,0,0,0.7749,0.7719,0.7545,0.7549,0.76,0.7822,0.7823,0.7964,0.7986,0.8075,0,0.815,0,0.8161,0.8187,0.8189,0,0,0,0.7587,0.7701,0.7744,0.755,0.7602,0.7821,0.7718,0.7976,0.8,0.8104,0.8154,0.8166,0.8167,0.819,0.8192,0.872,0.8723,0,0,0.7575,0.7597,0.7728,0.776,0.7715,0.7711,0.7725,0.7989,0.8051,0.8155,0.8173,0.8172,0.8192,0.8195,0.8717,0.8721,0,0,0,0.7546,0.7589,0.7624,0.7747,0.7783,0.7717,0.7734,0.8039,0.8048,0.8176,0.8176,0.8194,0.8199,0.8714,0.8718,0.8885,0,0,0,0.7538,0.7572,0.7619,0.7636,0.7779,0.7912,0.7778,0.803,0.8059,0.8174,0.8195,0.8203,0.871,0.8716,0.8873,0.8962,0,0,0,0.7524,0.757,0.7607,0.7636,0.7732,0.7907,0.793,0.8035,0.806,0.8189,0.8204,0.8708,0.8715,0.8862,0.8945,0.911,0,0,0,0.7517,0.7756,0.761,0.7878,0.773,0.8003,0.7928,0.8133,0.8264,0.8196,0.8711,0.8718,0.8859,0.8934,0.9099,0.9255,0.9319,0,0,0.7831,0.7794,0.795,0.7827,0.8129,0.7967,0.8299,0.8403,0.8401,0.8617,0.8629,0.8877,0.8944,0.9108,0.9671,0.9723,0,0,0,0.8058,0.8171,0.8246,0.8366,0.8444,0.8523,0.857,0.861,0.879,0.8511,0.8978,0.9017,0.9113,0.9187,0.9231,0.9315,0.8751,0.8751,0.875,0.854,0.8515,0.8774,0.8777,0.8897,0.8942,0.904,0.9103,0.9049,0.916,0.9226,0.9569,0.9656,0.9689,0.9776,0.9302,0.9303,0.9304,0.9304,0.9003,0.9161,0.9078,0.9298,0.9276,0.9466,0.9523,0.9478,0.9659,0.9517,0.9601,0.9452,0.9746,0.9822,0.9316,0.9314,0.9313,0.9311,0.9311,0.932,0.9391,0.9428,0.9599,0.9738,0.9736,0.9911,0.9885,0.9864,0.9946,1.0016,1.0014,1.0013,0.998,0.9981,0.9982,0.9983,0.9984,0.9985,0.9636,0.9671,0.9816,0.9918,0.9993,1.0089,1.0139,1.0217,1.0297,1.0266,1.0267,1.0208,0.9775,0.967,1.0003,1.0,0.9998,0.9996,0.9995,1.0123,1.0007,1.0231,1.0306,1.0426,1.0568,1.053,1.069,1.0751,1.084,1.0762,1.0444,1.0409,1.0374,1.0287,1.076,1.076,1.076,1.076,1.0394,1.0369,1.0593,1.0714,1.0831,1.0819,1.1086,1.113,1.1159,1.1198,1.1125,1.1006,1.0971,1.0957,1.0909,1.0829,1.1429,1.1429,1.143,1.0695,1.068,1.0906,1.0921,1.1014,1.1098,1.135,1.1503,1.1513,1.1457,1.123,1.1201,1.1009,1.0947,1.089,1.0816,1.0667,0,0]},{"header":{"parameterUnit":"m.s-1","parameterCategory":1,"la1":30.2992,"la2":30.254,"lo1":-89.0895,"lo2":-89.0443,"dy":0.0025,"dx":0.0025,"nx":19,"ny":19,"refTime":"2026-04-29T03:00:00:Z","depth":0,"parameterNumber":3,"parameterNumberName":"V-component_of_WINDS"},"data":[0,0,0,-0.3223,-0.3228,-0.349,-0.3492,-0.3767,-0.3769,0,0,0,0,0,0,0,0,0,0,0,-0.311,-0.3111,-0.3223,-0.3228,-0.349,-0.3492,-0.3767,-0.3769,0,0,0,0,0,0,0,0,0,0,0,-0.311,-0.3111,-0.3112,-0.3229,-0.349,-0.3492,-0.3766,-0.359,0,0,0,0,0,0,0,0,0,0,-0.3345,-0.3207,-0.3111,-0.3112,-0.323,-0.349,-0.3492,-0.3582,-0.3601,-0.3623,0,-0.3635,0,-0.3706,-0.3784,-0.3785,0,0,0,-0.3254,-0.3191,-0.3294,-0.3112,-0.3232,-0.3489,-0.3379,-0.3593,-0.3614,-0.3647,-0.3639,-0.3651,-0.371,-0.3785,-0.3786,-0.3829,-0.3828,0,0,-0.324,-0.3139,-0.3279,-0.3305,-0.3262,-0.3371,-0.3387,-0.3607,-0.3591,-0.3641,-0.3659,-0.3715,-0.3787,-0.3788,-0.383,-0.3829,0,0,0,-0.3181,-0.3127,-0.3226,-0.3293,-0.3344,-0.3378,-0.3397,-0.3582,-0.3622,-0.3662,-0.3718,-0.3788,-0.3791,-0.3831,-0.3829,-0.3679,0,0,0,-0.3173,-0.3093,-0.3218,-0.3159,-0.3339,-0.3466,-0.3365,-0.3607,-0.3635,-0.3717,-0.3788,-0.3793,-0.3833,-0.383,-0.3686,-0.3624,0,0,0,-0.3105,-0.3086,-0.3112,-0.3153,-0.3262,-0.3465,-0.3519,-0.3615,-0.3668,-0.3785,-0.3793,-0.3833,-0.3831,-0.3692,-0.3635,-0.3604,0,0,0,-0.3003,-0.2976,-0.3107,-0.3098,-0.3259,-0.337,-0.3519,-0.3608,-0.369,-0.3789,-0.3832,-0.383,-0.3694,-0.3641,-0.3609,-0.3558,-0.3528,0,0,-0.2913,-0.2961,-0.2964,-0.3089,-0.3151,-0.3339,-0.3379,-0.3551,-0.3655,-0.3764,-0.3767,-0.3684,-0.3636,-0.3605,-0.3396,-0.3371,0,0,0,-0.2901,-0.2901,-0.294,-0.3013,-0.3143,-0.3248,-0.3425,-0.3488,-0.3585,-0.3691,-0.3669,-0.3643,-0.3629,-0.3609,-0.3588,-0.3581,-0.3817,-0.3817,-0.3817,-0.2627,-0.276,-0.2772,-0.2935,-0.3004,-0.3184,-0.3252,-0.3368,-0.3484,-0.3475,-0.3509,-0.3365,-0.3338,-0.3323,-0.3314,-0.3494,-0.3493,-0.3493,-0.3493,-0.2504,-0.2524,-0.2676,-0.2741,-0.2881,-0.2938,-0.3109,-0.3188,-0.3259,-0.3353,-0.3347,-0.3435,-0.3291,-0.3291,-0.3483,-0.3484,-0.3486,-0.3487,-0.3487,-0.2338,-0.237,-0.2447,-0.2564,-0.2639,-0.2806,-0.2866,-0.2993,-0.3112,-0.3107,-0.3153,-0.3156,-0.3173,-0.312,-0.312,-0.3119,-0.3119,-0.3118,-0.3118,-0.2134,-0.2226,-0.2262,-0.2394,-0.2456,-0.2553,-0.2731,-0.2795,-0.2898,-0.2985,-0.2986,-0.3099,-0.3254,-0.3288,-0.3111,-0.3112,-0.3113,-0.3114,-0.3114,-0.1958,-0.2017,-0.2072,-0.2133,-0.2297,-0.2361,-0.2521,-0.2639,-0.2711,-0.2735,-0.285,-0.2944,-0.3003,-0.3021,-0.3051,-0.2823,-0.2823,-0.2823,-0.2823,-0.1816,-0.1858,-0.1941,-0.203,-0.2132,-0.228,-0.2334,-0.2471,-0.2622,-0.2673,-0.2725,-0.2775,-0.2787,-0.2839,-0.2861,-0.289,-0.2627,-0.2627,-0.2627,-0.1713,-0.1771,-0.1793,-0.1941,-0.2078,-0.2191,-0.2245,-0.2339,-0.2523,-0.2622,-0.2715,-0.2723,-0.2806,-0.2827,-0.2926,-0.2957,-0.3014,0,0]}]]